Wetbulb
57.49 60.47 59.78 61.45 60.64 61.62 61.02 61.94 61.78 62.09 60.48 58.36 57.97 57.71 57.29 58.89 59.55 60.15 60.97 59.99 59.58 59.61 61.25 59.21 59.59 61.50 61.30 61.76 61.77 60.09 58.87 57.94 57.98 57.51 57.01 58.04 59.77 59.50 58.93 60.37 59.81 59.48 58.74
58.81 59.51 60.68 60.69 60.67 60.12 61.09 61.52 61.55 61.57 60.43 58.41 58.44 58.15 57.89 58.45 58.68 59.43 59.89 59.62 58.95 59.02 58.54 59.94 58.79 60.45 58.84 61.23 61.53 60.98 59.68 58.29 58.71 55.23 55.33 52.20 55.36 56.19 58.53 59.76 58.53 58.38 58.23
57.94 57.75 58.86 59.25 59.54 59.41 60.29 61.05 61.47 61.22 60.24 59.86 58.61 58.54 58.91 58.27 56.46 56.88 56.02 57.52 58.15 58.51 59.16 59.51 59.76 59.29 59.84 57.74 61.19 61.33 59.94 56.58 57.83 59.19 55.31 52.24 51.62 53.88 55.05 55.85 57.05 58.09 57.10
57.88 57.48 57.67 58.35 59.55 59.87 60.25 60.35 60.56 60.20 59.57 60.09 59.52 58.10 56.00 53.97 54.98 56.08 57.47 57.63 58.00 58.18 58.47 58.62 59.25 59.62 58.78 59.72 59.41 60.37 60.44 59.03 56.56 58.45 57.64 58.50 56.94 53.01 51.80 55.95 56.00 57.48 57.24
56.51 56.00 56.64 57.32 59.04 59.11 60.29 59.57 59.67 59.32 59.48 59.30 58.97 55.59 55.26 54.76 55.85 56.06 56.42 57.38 58.61 58.81 58.18 58.84 58.60 58.91 58.78 59.52 59.40 59.50 59.92 60.31 57.96 57.15 58.34 57.88 56.58 56.29 53.32 51.33 54.68 55.74 56.91
54.85 55.84 55.94 57.07 57.29 58.05 57.85 57.72 58.22 58.58 58.02 58.64 58.06 57.05 56.02 55.80 54.55 55.65 54.44 55.18 55.66 56.28 57.52 58.32 58.55 59.04 59.47 58.93 58.99 59.38 59.44 59.15 59.11 58.51 58.57 57.49 55.52 55.31 54.44 52.75 53.75 53.43 54.04
53.71 55.29 56.78 55.75 55.89 55.99 55.76 56.69 55.70 55.17 55.93 55.74 56.11 56.29 56.31 56.26 55.68 55.39 54.27 54.36 54.02 55.07 57.19 57.95 58.25 57.87 58.59 58.47 58.80 58.69 58.53 58.86 58.36 58.66 58.17 58.51 57.57 56.30 57.22 54.71 52.83 51.59 53.22
55.95 55.91 55.70 55.65 55.94 55.64 54.38 54.47 53.89 53.72 54.21 55.18 55.73 55.57 55.18 54.33 53.94 54.71 53.94 53.42 53.55 55.19 57.28 57.42 57.73 57.56 57.74 57.91 57.83 56.70 57.00 58.47 59.08 57.73 58.39 56.98 56.59 55.67 56.41 55.92 52.62 49.69 51.94
54.77 56.22 56.61 55.61 53.72 53.46 54.17 53.13 53.01 53.64 54.72 54.49 54.23 54.46 54.68 54.33 53.24 53.65 53.71 53.97 55.12 54.84 55.55 56.78 56.66 56.69 56.90 56.51 56.46 55.13 55.16 57.09 58.28 58.15 58.08 56.36 55.99 57.20 58.36 56.78 54.67 51.03 47.63
54.39 54.15 54.63 53.53 55.12 54.16 52.70 53.96 53.86 54.37 52.67 53.79 53.21 53.34 53.03 53.03 52.91 52.90 52.82 52.66 54.14 54.97 55.26 55.46 55.54 55.89 55.62 55.60 55.93 54.30 54.22 54.39 54.93 55.88 55.36 55.95 56.36 56.85 57.64 56.34 54.72 54.49 52.91
53.47 53.58 54.11 54.50 52.98 53.06 54.13 53.67 53.84 52.72 52.54 52.47 52.66 52.54 51.43 51.27 51.54 51.31 51.43 51.57 52.79 54.11 53.02 53.41 53.14 53.05 54.01 54.93 54.62 53.02 53.59 52.65 53.67 55.74 55.65 55.74 56.66 55.57 56.33 55.20 55.76 55.90 52.49
53.64 53.03 53.50 51.54 52.93 51.34 51.36 51.27 52.28 51.17 51.46 52.17 52.89 51.90 49.82 50.47 51.49 50.90 50.10 51.24 51.65 53.09 53.02 53.35 52.97 52.95 52.18 54.50 54.35 53.57 54.40 53.65 53.62 54.45 55.25 54.91 54.45 55.63 56.16 55.73 55.22 54.04 53.20
52.80 52.13 52.47 51.28 50.31 50.93 49.88 50.49 51.41 51.40 52.76 51.82 51.87 49.26 48.49 50.26 50.88 50.18 50.76 50.97 51.49 51.88 52.61 53.03 52.98 52.21 53.08 53.35 53.17 53.42 53.36 53.94 54.35 54.23 54.50 54.74 54.44 54.19 54.82 55.56 54.76 54.84 51.85
50.29 50.82 49.04 48.09 48.87 49.94 49.19 49.91 51.09 51.49 52.02 51.33 49.45 49.83 51.16 51.65 51.69 51.48 50.02 50.85 51.92 51.26 51.90 52.26 52.22 53.13 52.60 51.91 52.42 53.09 53.06 53.57 53.83 54.79 54.66 54.12 53.83 53.02 53.76 53.45 52.68 51.69 50.81
49.90 47.64 47.53 47.65 48.66 48.78 50.32 50.52 50.14 52.23 52.06 51.84 50.43 49.53 50.44 51.94 50.30 50.38 51.52 52.26 52.06 51.47 52.03 52.15 52.98 53.21 51.75 50.36 51.04 52.73 52.56 53.26 53.62 53.74 54.06 54.35 53.52 51.91 51.75 52.12 52.74 51.74 50.87
47.89 46.72 47.65 49.21 47.82 48.98 49.25 49.59 50.67 52.17 52.75 51.09 50.02 50.97 50.33 51.28 50.22 52.17 52.57 53.00 52.49 52.33 52.31 51.77 51.90 52.17 51.45 47.14 48.06 50.96 51.54 52.26 51.98 51.90 54.04 54.14 52.51 52.34 50.85 50.22 50.52 50.69 51.56
47.25 46.78 49.25 48.45 48.86 49.10 49.60 49.68 51.30 52.06 51.93 52.16 52.34 51.26 50.98 49.45 50.73 51.16 50.52 51.03 50.55 50.27 49.37 50.22 52.13 52.13 51.76 46.44 47.04 49.02 51.76 51.72 52.60 52.56 52.47 52.92 53.47 52.79 51.66 52.08 50.99 50.93 50.23
47.56 49.48 49.61 49.47 50.72 49.86 51.00 51.65 52.11 52.28 51.33 51.37 50.72 51.14 50.80 50.95 50.54 52.41 52.57 52.47 52.81 52.43 49.88 50.34 50.80 50.80 49.57 45.92 45.69 47.80 51.21 51.50 52.08 53.31 53.75 53.95 54.21 53.17 52.69 54.74 55.12 54.91 54.87
50.31 50.71 51.12 50.86 50.44 50.39 51.56 51.31 51.87 52.02 51.27 50.55 50.38 51.92 52.49 52.67 53.03 52.60 53.31 53.86 53.58 52.19 51.58 52.10 52.76 52.53 52.32 44.78 44.77 49.75 52.18 53.05 53.98 54.85 54.67 54.84 53.61 46.14 46.31 53.07 54.90 54.95 55.37
51.39 51.29 51.37 51.02 50.33 51.90 52.13 51.51 50.85 51.57 51.36 52.08 51.75 52.69 53.90 53.15 52.13 52.79 53.02 53.49 53.24 53.59 54.04 54.09 54.83 49.61 53.02 43.58 44.34 46.27 53.89 55.08 54.89 55.62 54.41 46.82 48.90 45.11 44.55 54.00 55.61 54.05 54.34
50.97 51.45 51.38 50.11 50.50 52.08 52.24 50.35 51.50 50.93 52.46 53.28 52.73 54.35 54.63 54.49 54.25 54.81 55.40 55.03 54.35 55.02 54.96 55.25 56.47 56.33 53.65 51.77 44.36 43.89 54.83 54.79 54.33 52.97 53.33 53.01 44.87 44.68 45.41 43.51 54.98 52.81 48.20
50.21 50.95 50.12 51.79 52.06 51.80 51.61 50.96 52.12 53.32 54.20 54.06 53.84 55.14 55.35 54.64 55.52 55.51 56.02 55.60 55.43 55.12 55.04 56.29 56.27 56.13 57.04 46.87 45.25 45.66 46.16 49.28 54.51 54.35 55.17 54.01 45.03 45.05 44.38 45.79 45.69 43.52 45.13
50.57 52.46 50.16 51.65 52.25 52.14 52.69 51.87 53.24 53.94 54.30 53.58 53.62 55.13 55.82 56.20 56.22 55.07 55.12 54.69 56.03 53.86 53.01 53.92 53.66 54.68 54.93 54.33 46.78 45.94 46.85 49.01 55.11 55.75 50.92 47.07 45.05 43.82 45.50 43.96 44.26 43.59 55.62
49.45 52.01 50.19 50.99 51.43 52.80 53.22 53.76 54.53 54.60 54.06 54.00 54.51 55.97 55.77 55.60 55.88 55.02 53.17 51.37 51.19 51.10 51.00 52.28 52.30 52.16 52.04 49.98 48.18 49.81 52.46 50.00 52.72 52.03 55.58 52.25 49.72 45.36 47.71 52.72 52.37 55.34 55.09
52.02 51.80 51.84 51.60 52.36 52.96 53.40 54.57 54.36 54.68 53.95 55.76 55.47 55.62 55.65 56.00 54.87 52.90 51.44 51.25 47.97 45.46 48.81 49.09 51.49 49.23 49.34 46.79 41.04 41.66 47.78 49.98 49.95 46.54 55.79 54.52 53.81 53.73 53.78 53.95 54.24 54.31 54.19
52.61 52.20 53.60 52.01 52.88 53.32 53.22 55.07 55.73 55.79 55.11 54.04 55.05 54.22 55.40 55.08 55.59 53.31 51.05 39.50 40.81 39.83 38.63 37.80 41.54 47.64 39.12 38.41 38.61 38.66 38.83 39.19 39.77 52.13 53.42 52.67 52.85 52.44 52.51 52.48 52.64 53.03 51.71
MSLP
1023.05 1022.72 1023.06 1022.84 1022.84 1022.61 1022.80 1022.77 1022.45 1022.54 1022.15 1021.54 1021.16 1021.01 1020.67 1020.35 1020.01 1020.63 1021.00 1020.77 1021.01 1020.37 1020.14 1019.46 1018.97 1019.11 1019.30 1019.45 1019.80 1020.01 1019.86 1019.58 1019.51 1018.86 1017.82 1017.20 1017.07 1017.55 1017.68 1017.78 1017.74 1017.81 1017.92
1022.00 1022.12 1022.04 1022.36 1022.44 1022.58 1022.35 1022.80 1022.54 1022.68 1022.50 1022.11 1021.63 1021.59 1021.13 1020.35 1020.17 1020.49 1020.37 1021.06 1020.94 1020.81 1020.59 1020.13 1019.97 1019.28 1018.93 1018.76 1018.91 1019.27 1019.39 1018.85 1018.51 1018.40 1017.63 1017.08 1017.46 1017.68 1017.60 1017.54 1017.86 1018.09 1018.03
1021.66 1022.11 1022.18 1022.32 1022.01 1022.17 1022.32 1022.53 1022.61 1022.87 1022.66 1022.73 1021.79 1021.58 1020.98 1020.19 1020.67 1020.72 1021.19 1021.02 1020.77 1020.88 1020.63 1020.17 1019.86 1019.32 1019.00 1018.73 1018.68 1018.95 1018.96 1018.34 1017.94 1018.10 1017.88 1017.73 1017.37 1017.33 1017.79 1017.89 1017.62 1018.07 1017.93
1021.63 1022.15 1022.11 1021.87 1021.80 1022.02 1022.19 1022.54 1022.88 1022.91 1022.52 1022.42 1022.08 1022.04 1021.58 1021.42 1021.59 1021.42 1021.20 1020.91 1020.77 1020.70 1020.36 1020.11 1019.62 1019.38 1019.13 1018.65 1018.70 1018.73 1018.85 1018.65 1018.19 1018.21 1017.91 1017.95 1018.22 1017.72 1017.92 1017.68 1018.01 1018.13 1018.03
1022.23 1022.31 1022.94 1023.07 1022.58 1021.85 1022.07 1022.36 1022.61 1022.63 1022.56 1022.73 1022.54 1022.56 1022.44 1022.22 1021.73 1021.45 1021.40 1020.98 1020.63 1020.32 1019.65 1020.10 1019.99 1019.78 1019.37 1019.09 1018.92 1018.83 1018.85 1018.80 1018.75 1018.51 1018.74 1018.86 1018.70 1018.55 1018.51 1018.27 1018.46 1018.04 1017.76
1022.87 1023.26 1023.93 1023.74 1022.56 1022.20 1022.24 1022.71 1022.50 1022.80 1022.90 1022.94 1022.92 1022.71 1022.54 1022.42 1022.04 1021.84 1021.34 1020.89 1020.44 1019.98 1020.06 1019.95 1020.03 1019.70 1019.56 1019.30 1019.09 1019.02 1018.88 1018.81 1018.75 1018.65 1018.93 1019.00 1018.97 1018.86 1018.88 1018.77 1018.70 1018.32 1017.88
1022.91 1023.01 1022.87 1023.18 1022.37 1022.62 1022.77 1022.70 1022.98 1023.27 1023.54 1023.41 1023.01 1022.89 1022.89 1022.57 1022.18 1022.10 1021.73 1021.50 1021.11 1020.62 1020.65 1020.42 1020.20 1019.76 1019.50 1019.30 1019.21 1019.03 1019.04 1018.95 1018.79 1018.63 1018.55 1018.82 1018.79 1018.61 1018.92 1018.94 1018.75 1018.30 1017.75
1022.53 1022.14 1022.66 1022.86 1022.74 1023.27 1023.32 1023.26 1023.57 1023.82 1023.78 1023.41 1023.41 1023.56 1023.45 1023.00 1022.79 1022.51 1022.36 1021.88 1021.66 1021.09 1020.85 1020.43 1020.15 1019.82 1019.63 1019.56 1019.25 1019.03 1019.17 1019.11 1018.94 1018.81 1018.93 1018.56 1018.27 1018.42 1018.89 1019.22 1018.86 1017.69 1017.48
1022.02 1022.09 1022.65 1023.23 1023.85 1023.64 1023.31 1023.92 1024.20 1023.95 1023.47 1023.78 1023.99 1023.75 1023.39 1023.07 1022.92 1022.76 1022.51 1021.85 1021.60 1021.27 1020.90 1020.57 1020.28 1020.12 1020.01 1019.86 1019.83 1019.76 1019.72 1019.52 1019.30 1019.18 1018.99 1018.81 1018.65 1019.02 1019.41 1019.27 1018.76 1018.03 1018.08
1022.24 1022.91 1023.24 1023.65 1023.38 1023.63 1024.46 1024.47 1024.29 1023.83 1024.35 1024.34 1024.16 1023.72 1023.52 1023.62 1023.41 1023.07 1022.72 1022.33 1022.07 1021.60 1021.28 1020.90 1020.70 1020.59 1020.51 1020.30 1020.10 1020.04 1020.25 1020.05 1019.70 1019.43 1019.41 1019.25 1018.97 1019.13 1019.06 1019.01 1018.27 1018.55 1018.96
1022.23 1022.76 1022.58 1022.70 1023.86 1024.37 1024.35 1024.36 1024.40 1024.51 1024.82 1024.57 1024.21 1024.24 1024.14 1024.13 1023.86 1023.38 1023.12 1022.75 1022.32 1021.93 1021.68 1021.21 1021.11 1020.93 1020.69 1020.49 1020.42 1020.47 1020.22 1020.18 1020.00 1019.66 1019.31 1019.17 1019.03 1018.68 1018.90 1018.43 1018.65 1018.89 1018.69
1022.60 1022.92 1023.08 1024.37 1024.81 1025.08 1025.05 1025.16 1025.45 1025.42 1024.88 1024.43 1024.47 1024.57 1025.00 1024.66 1023.98 1023.84 1023.54 1023.09 1022.61 1022.14 1021.74 1021.31 1021.07 1021.07 1021.00 1020.73 1020.43 1020.15 1020.11 1019.92 1019.73 1019.44 1019.09 1018.85 1018.69 1018.74 1018.58 1018.51 1018.87 1018.80 1019.14
1023.27 1024.01 1024.02 1025.07 1025.61 1025.70 1025.88 1025.87 1025.80 1025.25 1024.73 1024.82 1024.93 1025.27 1025.32 1024.83 1024.34 1024.17 1023.60 1023.33 1022.65 1022.37 1022.11 1021.62 1021.07 1021.09 1021.00 1020.77 1020.70 1020.48 1020.19 1019.91 1019.62 1019.46 1019.26 1019.23 1019.39 1019.47 1019.20 1019.37 1019.41 1019.54 1019.83
1024.27 1024.60 1025.73 1026.32 1026.33 1026.33 1026.53 1026.17 1025.71 1025.50 1025.08 1025.26 1025.57 1025.36 1025.06 1024.74 1024.39 1024.08 1023.88 1023.32 1022.89 1022.62 1022.28 1021.76 1021.62 1021.32 1021.27 1021.44 1021.25 1020.80 1020.48 1020.27 1019.89 1019.76 1019.66 1019.80 1019.80 1019.92 1019.70 1019.71 1020.00 1020.16 1020.27
1024.68 1025.89 1026.69 1026.68 1026.47 1026.74 1026.56 1026.39 1026.25 1025.65 1025.49 1025.08 1025.61 1025.77 1025.43 1024.85 1024.74 1024.27 1023.78 1023.46 1023.02 1022.78 1022.35 1022.07 1021.80 1021.65 1021.56 1022.21 1022.19 1021.49 1020.99 1020.57 1020.28 1020.28 1020.14 1020.36 1020.63 1020.80 1020.78 1020.35 1020.40 1020.48 1020.42
1025.93 1026.96 1026.93 1026.77 1027.02 1026.88 1027.02 1026.83 1026.50 1026.02 1025.62 1025.89 1025.82 1025.77 1025.74 1025.24 1025.03 1024.51 1023.97 1023.60 1023.32 1023.12 1022.93 1022.71 1022.40 1022.20 1022.19 1023.07 1022.72 1022.20 1021.58 1021.23 1020.96 1020.80 1020.50 1020.60 1020.90 1020.94 1021.00 1020.95 1020.83 1020.67 1020.37
1026.52 1027.21 1026.93 1027.25 1027.41 1027.26 1027.46 1027.09 1026.63 1026.40 1026.12 1025.86 1025.69 1025.58 1025.63 1025.51 1025.19 1024.90 1024.59 1024.30 1024.04 1023.85 1023.72 1023.41 1023.00 1022.82 1022.98 1023.37 1022.97 1022.37 1021.93 1021.62 1021.40 1021.36 1021.27 1021.10 1021.02 1021.00 1021.01 1020.78 1020.44 1020.30 1020.13
1027.04 1027.04 1027.24 1027.47 1027.61 1027.88 1027.42 1027.14 1026.81 1026.62 1026.46 1026.23 1026.31 1025.93 1025.80 1025.47 1025.30 1024.83 1024.52 1024.40 1024.16 1023.92 1023.92 1023.74 1023.63 1023.49 1023.62 1023.71 1023.40 1022.83 1022.39 1022.14 1021.96 1021.64 1021.53 1021.32 1021.01 1021.19 1021.25 1020.71 1019.65 1019.31 1019.26
1027.24 1027.61 1027.60 1027.83 1028.09 1027.92 1027.70 1027.58 1027.08 1026.72 1026.62 1026.41 1026.44 1026.05 1025.61 1025.14 1024.83 1024.60 1024.45 1024.28 1024.01 1024.06 1023.89 1023.79 1023.42 1023.20 1023.41 1023.84 1023.57 1022.89 1022.57 1022.11 1021.78 1021.55 1021.48 1021.59 1021.32 1021.71 1021.53 1020.73 1019.45 1019.17 1018.74
1027.75 1027.91 1027.90 1028.10 1028.25 1028.02 1027.86 1027.53 1027.39 1026.93 1026.81 1026.40 1026.42 1026.13 1025.59 1025.39 1025.20 1024.94 1024.62 1024.43 1024.25 1023.93 1023.45 1023.28 1023.17 1023.21 1023.39 1024.01 1023.60 1023.31 1022.78 1021.89 1021.10 1020.79 1021.50 1022.02 1022.18 1021.83 1021.62 1021.23 1020.13 1019.34 1019.24
1028.08 1028.10 1028.07 1028.36 1028.32 1028.16 1028.00 1027.75 1027.42 1027.20 1027.05 1026.65 1026.49 1026.04 1025.60 1025.47 1025.46 1025.14 1024.76 1024.45 1024.24 1023.98 1023.56 1023.21 1022.98 1022.88 1023.23 1023.61 1023.36 1023.14 1022.72 1021.86 1020.96 1020.44 1020.93 1021.80 1021.89 1021.78 1021.51 1021.30 1020.40 1019.93 1019.79
1028.18 1028.08 1028.12 1028.25 1028.16 1028.24 1028.15 1027.81 1027.37 1027.28 1026.79 1026.67 1026.33 1025.81 1025.67 1025.46 1025.32 1025.10 1024.94 1024.63 1024.19 1023.64 1023.21 1022.86 1022.70 1022.56 1022.72 1023.35 1023.39 1022.87 1022.55 1022.31 1021.76 1020.97 1021.36 1021.77 1021.53 1021.42 1021.24 1020.79 1020.00 1019.55 1019.14
1028.30 1028.14 1028.43 1028.32 1028.06 1028.22 1028.08 1027.71 1027.45 1027.13 1026.80 1026.70 1026.22 1025.80 1025.60 1025.44 1025.35 1024.92 1024.30 1023.60 1023.46 1023.66 1023.60 1023.35 1023.13 1023.05 1022.72 1023.08 1023.65 1023.46 1023.15 1022.36 1021.85 1021.52 1021.76 1021.36 1021.35 1020.70 1020.45 1019.96 1019.42 1019.15 1018.15
1028.50 1028.15 1028.52 1028.00 1028.06 1028.05 1027.94 1027.63 1027.42 1027.14 1027.16 1026.85 1026.36 1025.82 1025.77 1025.84 1025.20 1024.75 1024.93 1025.25 1024.97 1024.60 1024.44 1023.88 1023.64 1023.26 1023.52 1024.18 1024.32 1023.63 1023.03 1022.40 1021.98 1021.73 1021.47 1020.87 1020.62 1020.11 1019.83 1019.27 1018.88 1018.57 1018.27
1028.27 1028.24 1028.23 1028.06 1027.96 1028.06 1027.76 1027.71 1027.65 1027.43 1027.14 1026.64 1025.96 1025.92 1025.53 1025.27 1025.28 1025.82 1026.39 1026.24 1026.83 1026.84 1025.99 1025.66 1024.90 1024.91 1024.81 1025.39 1025.64 1025.33 1024.46 1023.92 1022.74 1022.24 1020.71 1020.35 1020.01 1019.61 1019.42 1019.15 1018.89 1018.63 1018.46
1028.40 1028.30 1028.15 1028.38 1028.20 1028.03 1027.99 1027.80 1027.66 1027.41 1027.24 1026.93 1026.02 1025.71 1025.33 1025.16 1024.78 1025.52 1026.53 1027.63 1027.46 1027.47 1027.13 1026.91 1026.43 1025.53 1026.31 1026.05 1025.59 1025.10 1024.51 1023.89 1023.05 1022.13 1020.98 1020.63 1020.32 1020.09 1019.86 1019.57 1019.28 1019.06 1019.05
Wind_Speed
9 8 6 8 7 6 9 9 9 10 10 9 8 8 8 7 7 4 4 6 5 10 7 9 8 6 9 9 9 7 8 8 9 10 9 8 7 5 6 3 3 5 5
12 10 7 9 8 5 6 8 10 10 9 9 7 7 9 7 5 1 7 7 7 10 11 10 8 9 8 11 7 9 7 8 4 7 9 7 2 0 6 2 3 3 4
9 7 7 5 4 6 7 9 10 10 10 11 9 8 9 7 9 10 6 8 9 7 6 9 7 10 9 6 5 7 9 9 7 7 6 4 2 4 3 4 2 2 3
9 7 4 6 6 7 8 8 8 9 9 11 10 11 10 9 8 4 4 7 6 5 11 7 11 9 10 10 7 5 6 8 8 2 4 8 6 3 1 1 4 4 2
8 6 17 15 4 4 6 10 8 9 13 11 13 8 9 8 7 7 9 5 5 4 9 6 9 8 7 9 8 7 6 5 5 4 3 4 4 5 4 4 3 3 3
11 9 3 13 4 7 12 13 11 11 13 10 8 9 11 11 11 10 9 8 7 8 6 7 9 7 7 6 6 6 6 6 6 5 2 3 3 3 3 3 2 4 4
2 1 5 11 10 10 11 13 15 12 13 12 12 12 12 13 12 12 9 11 9 9 10 9 8 7 7 6 7 6 6 6 7 5 1 2 3 5 1 2 2 4 3
1 4 9 11 12 13 11 11 12 12 11 11 15 12 12 9 9 10 9 9 8 8 10 8 7 7 7 7 7 7 7 6 4 5 2 3 1 4 3 2 4 7 1
4 11 8 10 11 8 12 13 10 11 14 14 11 9 11 12 12 13 12 9 9 10 11 7 6 7 7 8 7 7 8 6 5 4 2 3 3 3 2 3 4 6 5
12 7 9 8 7 12 12 10 10 14 11 13 11 11 13 14 11 9 10 10 10 9 9 8 8 7 7 7 6 7 7 7 6 4 0 3 3 3 2 4 4 5 5
8 7 6 14 17 13 12 13 13 12 11 10 11 12 11 14 11 9 10 11 10 9 6 7 9 8 7 5 4 4 5 4 4 4 4 3 4 3 2 4 3 3 2
12 11 13 15 13 13 13 14 13 12 10 11 11 12 11 13 11 11 9 8 8 7 7 6 6 5 5 6 5 3 3 4 5 5 5 5 5 5 5 3 8 6 7
10 14 14 14 13 13 11 12 10 9 11 10 13 12 9 11 10 8 10 8 6 7 7 10 8 6 7 8 8 7 8 6 6 5 7 8 11 9 8 8 7 5 5
13 14 12 11 10 11 11 9 12 12 9 13 10 12 10 10 9 7 8 7 7 6 7 7 6 8 7 8 10 10 7 7 5 5 5 7 9 9 9 7 8 6 3
12 12 10 8 11 10 9 11 9 9 9 9 9 9 12 11 8 10 9 7 8 6 6 6 7 6 7 9 11 11 9 7 7 7 9 10 10 9 8 6 5 5 2
12 11 8 11 10 8 9 9 10 9 11 10 8 7 8 9 10 13 13 10 11 11 11 10 9 9 8 9 10 10 6 9 7 6 7 8 7 5 4 5 4 4 5
10 7 9 9 8 11 8 8 7 10 10 11 11 5 6 5 9 9 9 9 9 7 9 10 10 9 9 11 10 12 6 4 5 7 5 5 5 5 5 2 8 7 7
8 8 7 8 9 7 6 6 7 8 9 9 11 10 5 10 10 10 9 8 7 8 4 6 7 6 6 7 6 3 5 5 5 5 5 5 5 6 8 9 5 3 3
6 7 7 8 7 5 7 7 8 8 8 8 8 10 8 8 9 6 6 6 5 4 5 5 6 4 10 6 7 7 6 5 5 4 5 6 8 8 8 10 5 6 3
8 6 8 6 6 6 6 7 8 8 8 9 8 8 8 8 7 9 10 8 7 7 4 5 5 3 10 6 5 4 2 3 4 5 8 5 6 8 9 9 7 7 9
5 3 6 6 4 5 7 8 8 8 7 7 6 6 4 5 5 6 6 5 4 4 4 6 7 9 7 6 5 4 4 5 4 6 6 6 1 5 8 6 7 8 6
3 3 4 1 3 5 6 8 7 6 5 5 3 2 5 6 5 5 2 1 3 4 4 6 4 7 8 4 2 8 7 10 6 7 7 3 6 8 9 8 5 10 7
4 2 3 1 3 5 5 5 5 4 5 4 3 7 7 8 6 5 8 8 7 6 8 5 3 4 9 10 3 6 13 10 5 5 1 8 11 12 8 16 16 9 3
1 4 3 1 5 5 4 4 3 4 5 4 3 3 8 5 5 7 9 10 10 8 7 7 8 7 9 8 6 7 5 9 5 1 8 2 8 10 8 7 1 7 8
2 3 3 4 5 3 4 5 5 3 2 1 4 2 4 4 7 8 8 8 8 7 9 9 8 9 8 8 8 8 9 9 10 11 3 7 7 7 8 8 8 8 9
1 0 1 5 2 4 4 4 4 4 5 4 4 4 3 1 3 7 7 9 7 1 5 5 10 5 5 7 9 10 12 14 15 9 7 7 7 8 8 8 9 9 10
Wind_Direction
159 129 134 124 124 80 37 30 32 25 5 7 356 356 348 339 342 55 349 333 294 324 297 302 315 244 233 234 235 221 229 230 230 249 260 247 224 234 259 215 0 37 310
148 129 129 85 80 77 46 25 25 23 19 4 5 359 328 322 342 331 334 42 341 339 331 341 319 312 318 298 262 247 245 245 257 263 292 293 111 352 248 214 272 71 301
89 117 81 125 84 68 35 27 24 14 32 6 357 3 317 332 12 347 15 346 354 326 278 298 297 300 293 299 303 276 234 244 237 240 273 282 292 216 163 265 219 169 305
88 39 116 41 43 21 21 38 22 14 13 2 345 354 339 0 344 338 357 314 315 298 309 326 305 315 303 303 325 285 249 260 278 249 295 306 336 319 298 235 112 246 310
110 50 26 4 310 8 39 25 3 359 10 359 356 5 352 323 325 328 330 343 301 295 278 322 307 310 303 309 307 303 268 276 275 295 285 265 287 290 308 280 324 276 274
54 48 334 282 45 11 19 359 2 15 0 351 13 336 333 335 328 326 322 335 328 325 358 339 318 319 318 327 328 325 296 280 265 260 259 266 259 239 255 287 311 287 260
62 104 264 295 46 17 8 338 22 4 19 358 346 347 345 333 336 342 342 335 340 343 346 333 327 335 337 346 350 342 336 293 274 276 292 230 246 225 84 317 301 267 289
238 275 32 11 6 11 327 13 11 12 356 350 359 359 355 353 339 343 339 331 325 340 332 336 348 0 14 20 8 14 347 318 302 295 272 260 261 357 21 296 305 300 341
286 23 26 14 0 311 19 39 20 338 347 17 358 354 344 350 341 336 330 334 330 332 345 344 4 24 36 42 25 35 20 22 25 36 69 301 26 33 355 311 283 313 325
52 44 25 339 296 21 57 21 344 356 14 9 353 350 1 7 354 350 344 348 343 347 1 26 29 37 36 37 36 47 35 19 24 24 3 286 333 356 270 248 308 8 334
44 359 326 23 27 25 356 2 2 357 15 352 6 5 11 2 358 4 355 354 354 8 346 32 33 27 18 31 63 55 21 23 325 342 310 280 232 5 344 313 14 359 5
17 5 5 37 21 6 2 9 12 17 348 0 23 20 26 346 7 349 352 349 346 352 343 25 22 39 347 336 342 357 19 346 342 352 5 22 17 344 29 335 11 28 47
5 16 17 24 15 14 1 16 5 357 355 14 34 23 2 345 349 358 355 7 6 11 8 339 7 13 7 7 344 342 344 348 324 339 355 2 33 27 15 22 21 34 40
12 27 30 24 360 12 9 349 10 10 6 38 31 356 6 350 353 12 2 7 0 5 334 10 15 22 26 22 2 359 356 348 346 5 344 53 32 15 3 38 30 23 8
26 30 35 353 9 16 9 15 7 12 359 14 41 13 353 9 15 360 3 16 9 18 349 34 40 24 46 29 358 357 12 10 32 7 47 50 52 41 24 1 18 21 341
28 55 2 15 19 4 23 -0 18 1 11 41 28 22 14 19 22 10 16 17 21 24 26 18 17 26 47 9 3 351 2 24 22 25 31 31 30 38 61 35 20 349 330
36 27 18 11 9 33 18 22 2 18 10 17 16 40 33 27 18 18 22 22 21 30 28 19 19 27 36 10 7 353 58 59 49 36 32 37 50 27 2 306 250 248 250
44 19 14 24 27 31 20 15 14 24 17 15 9 359 51 12 12 16 23 25 16 32 27 12 19 24 40 12 4 26 52 52 57 50 39 30 38 37 349 317 276 134 146
32 19 5 28 52 26 24 8 349 19 4 10 18 349 15 19 20 57 43 24 38 23 15 19 28 27 61 24 1 7 30 54 59 46 49 342 56 13 342 309 32 55 51
39 14 39 66 40 22 355 10 355 7 6 1 20 343 17 44 43 41 39 33 45 55 81 88 58 63 71 60 3 341 315 100 112 123 107 67 24 343 342 343 354 7 13
40 29 61 58 24 7 356 353 351 4 354 2 355 349 10 76 62 23 19 19 357 349 6 42 52 72 51 65 1 348 221 355 311 90 88 79 16 297 300 310 317 323 323
46 11 74 62 22 21 348 341 2 341 9 44 9 69 61 40 30 48 6 342 352 24 67 89 113 87 93 64 24 336 342 337 325 42 46 68 275 270 276 286 289 283 275
70 26 75 315 24 14 339 349 32 338 80 100 80 37 33 56 37 27 31 38 36 39 32 73 125 96 39 43 43 290 300 300 339 35 39 261 272 272 273 252 271 288 273
260 72 105 257 30 8 349 42 27 91 59 53 85 68 79 27 26 39 59 35 19 8 24 18 25 47 50 39 16 340 302 263 263 356 273 230 280 293 306 317 285 18 2
61 105 170 43 38 32 63 76 66 50 71 233 65 7 77 75 105 57 22 69 52 33 26 11 43 12 19 12 325 328 347 345 332 317 328 20 16 16 16 13 15 24 -0
86 258 261 80 102 76 91 71 35 55 24 1 355 52 345 240 19 147 116 43 56 5 113 59 38 73 66 326 320 320 321 317 318 315 23 20 16 15 12 8 10 14 14